Lyndonville, VT

9:08 PM EST on February 06, 2016 (GMT -0500)
Lyndonville

Weather History for KCDA - July, 2013

Change the Weather History Date:

Monday, July 1, 2013

  Actual Average (K1V4) Record (K1V4)
Temperature  
Mean Temperature 68 °F 69 °F  
Max Temperature 74 °F 81 °F 98 °F (1931)
Min Temperature 62 °F 58 °F 37 °F (1912)
Degree Days  
Heating Degree Days 0 1  
Month to date heating degree days 1  
Since 1 June heating degree days 73  
Since 1 July heating degree days 1  
Cooling Degree Days 3 5  
Month to date cooling degree days 5  
Year to date cooling degree days 113  
Since 1 June cooling degree days 95  
Growing Degree Days 18 (Base 50)    
Moisture  
Dew Point 61 °F    
Average Humidity 79    
Maximum Humidity 91    
Minimum Humidity 62    
Precipitation  
Precipitation 0.00 in 0.13 in 1.60 in (1971)
Month to date precipitation 0.13  
Year to date precipitation 17.55  
Sea Level Pressure  
Sea Level Pressure 30.06 in    
Wind  
Wind Speed 1 mph (North)    
Max Wind Speed 9 mph    
Max Gust Speed -    
Visibility 8 miles    
Events Rain    
T = Trace of Precipitation, MM = Missing Value Source: NWS Daily Summary

Daily Weather History Graph

Daily Weather History Graph

Search for Another Location

Airport or City:

Trip Planner

Search our weather history database for the weather conditions in past years. The results will help you decide how hot, cold, wet, or windy it might be!

Date:

Astronomy

Jul. 01, 2013 Rise Set
Actual Time 5:07 AM EDT 8:36 PM EDT
Civil Twilight 4:30 AM EDT 9:13 PM EDT
Nautical Twilight 3:41 AM EDT 10:01 PM EDT
Astronomical Twilight 2:39 AM EDT 11:03 PM EDT
Moon 12:45 AM EDT (7/1) 2:41 PM EDT (7/1)
Length of Visible Light 16h 43m
Length of Day
15h 29m
Waning Crescent, 35% of the Moon is Illuminated
Jul 1
Waning Crescent
Jul 8
New
Jul 15
First Quarter
Jul 22
Full
Jul 29
Last Quarter

Hourly Weather History & Observations

Time (EDT) Temp. Dew Point Humidity Pressure Visibility Wind Dir Wind Speed Gust Speed Precip Events Conditions
12:15 AM 66.6 °F 62.6 °F 87% 29.98 in 7.0 mi Calm Calm - N/A   Overcast
12:35 AM 65.7 °F 62.6 °F 90% 29.98 in 5.0 mi Calm Calm - N/A   Scattered Clouds
12:55 AM 65.3 °F 62.2 °F 90% 29.98 in 7.0 mi Calm Calm - N/A   Mostly Cloudy
1:15 AM 65.8 °F 62.8 °F 90% 29.98 in 7.0 mi Calm Calm - N/A   Overcast
1:35 AM 66.7 °F 63.1 °F 88% 29.98 in 10.0 mi Calm Calm - N/A   Overcast
1:55 AM 66.4 °F 62.8 °F 88% 29.98 in 7.0 mi Calm Calm - N/A   Overcast
2:15 AM 65.8 °F 62.6 °F 89% 29.98 in 10.0 mi Calm Calm - N/A   Overcast
2:35 AM 65.5 °F 62.2 °F 89% 29.98 in 5.0 mi Calm Calm - N/A   Overcast
2:55 AM 65.1 °F 62.1 °F 90% 29.99 in 5.0 mi Calm Calm - N/A   Overcast
3:15 AM 65.3 °F 61.9 °F 89% 29.98 in 10.0 mi Calm Calm - N/A   Overcast
3:35 AM 65.7 °F 61.9 °F 88% 29.98 in 10.0 mi Calm Calm - N/A   Overcast
3:55 AM 65.5 °F 62.1 °F 89% 29.99 in 10.0 mi Calm Calm - N/A   Overcast
4:15 AM 65.3 °F 61.7 °F 88% 30.00 in 10.0 mi Calm Calm - N/A   Overcast
4:35 AM 65.5 °F 61.7 °F 88% 30.00 in 10.0 mi Calm Calm - N/A   Overcast
4:55 AM 65.5 °F 62.1 °F 89% 30.01 in 7.0 mi Calm Calm - N/A   Overcast
5:15 AM 65.5 °F 62.6 °F 90% 30.00 in 4.0 mi Calm Calm - N/A   Overcast
5:35 AM 65.5 °F 62.6 °F 90% 30.01 in 7.0 mi Calm Calm - N/A   Overcast
5:55 AM 64.9 °F 61.9 °F 90% 30.02 in 1.5 mi Calm Calm - N/A   Overcast
6:15 AM 65.3 °F 62.6 °F 91% 30.02 in 5.0 mi Calm Calm - N/A   Mostly Cloudy
6:35 AM 65.8 °F 62.8 °F 90% 30.03 in 5.0 mi Calm Calm - N/A   Mostly Cloudy
6:55 AM 65.3 °F 62.2 °F 90% 30.03 in 3.0 mi Calm Calm - N/A   Overcast
7:15 AM 66.7 °F 62.2 °F 85% 30.04 in 10.0 mi Calm Calm - N/A   Overcast
7:35 AM 66.9 °F 62.4 °F 85% 30.05 in 10.0 mi Calm Calm - N/A   Mostly Cloudy
7:55 AM 68.4 °F 63.0 °F 83% 30.05 in 10.0 mi Calm Calm - N/A   Mostly Cloudy
8:15 AM 68.5 °F 63.3 °F 83% 30.05 in 10.0 mi Calm Calm - N/A   Scattered Clouds
8:35 AM 68.9 °F 63.3 °F 82% 30.05 in 10.0 mi Calm Calm - N/A   Mostly Cloudy
8:55 AM 68.9 °F 63.1 °F 82% 30.06 in 10.0 mi Calm Calm - N/A   Overcast
9:15 AM 69.6 °F 63.7 °F 81% 30.06 in 10.0 mi Calm Calm - N/A   Mostly Cloudy
9:55 AM 70.9 °F 62.1 °F 74% 30.06 in 10.0 mi North 4.6 mph - N/A   Mostly Cloudy
10:15 AM 71.1 °F 62.2 °F 74% 30.07 in 10.0 mi North 3.5 mph - N/A   Mostly Cloudy
10:35 AM 71.2 °F 62.2 °F 73% 30.08 in 10.0 mi North 4.6 mph - N/A   Mostly Cloudy
10:55 AM 71.6 °F 62.1 °F 72% 30.09 in 10.0 mi Calm Calm - N/A   Mostly Cloudy
11:15 AM 71.6 °F 62.1 °F 72% 30.09 in 10.0 mi Calm Calm - N/A   Overcast
11:35 AM 71.1 °F 61.9 °F 73% 30.10 in 10.0 mi Calm Calm - N/A Rain Light Rain
11:55 AM 71.4 °F 62.4 °F 73% 30.09 in 10.0 mi Calm Calm - N/A Rain Light Rain
12:15 PM 71.6 °F 62.8 °F 74% 30.09 in 10.0 mi Calm Calm - N/A Rain Light Rain
12:35 PM 71.2 °F 62.1 °F 73% 30.09 in 10.0 mi Calm Calm - N/A   Light Drizzle
12:55 PM 71.8 °F 62.2 °F 72% 30.09 in 10.0 mi Calm Calm - N/A Rain Light Rain
1:15 PM 72.1 °F 63.1 °F 73% 30.08 in 10.0 mi North 4.6 mph - N/A Rain Light Rain
1:35 PM 72.7 °F 62.8 °F 71% 30.08 in 10.0 mi NNE 6.9 mph - N/A Rain Light Rain
1:55 PM 72.3 °F 62.2 °F 70% 30.08 in 10.0 mi North 6.9 mph - N/A   Mostly Cloudy
2:15 PM 72.5 °F 62.4 °F 71% 30.08 in 10.0 mi NNE 3.5 mph - N/A   Overcast
2:35 PM 72.5 °F 62.4 °F 71% 30.09 in 10.0 mi Calm Calm - N/A   Overcast
2:55 PM 72.5 °F 63.0 °F 72% 30.09 in 10.0 mi North 3.5 mph - N/A Rain Light Rain
3:15 PM 73.6 °F 63.7 °F 71% 30.09 in 10.0 mi NNW 3.5 mph - N/A   Light Drizzle
3:35 PM 73.8 °F 62.4 °F 68% 30.08 in 10.0 mi North 4.6 mph - N/A   Mostly Cloudy
3:55 PM 74.3 °F 62.8 °F 67% 30.08 in 10.0 mi NNW 4.6 mph - N/A   Mostly Cloudy
4:15 PM 73.4 °F 62.4 °F 68% 30.08 in 10.0 mi North 8.1 mph - N/A   Mostly Cloudy
4:35 PM 72.5 °F 61.3 °F 68% 30.09 in 10.0 mi North 3.5 mph - N/A   Overcast
4:55 PM 71.8 °F 60.8 °F 68% 30.08 in 10.0 mi North 5.8 mph - N/A   Overcast
5:15 PM 71.6 °F 60.8 °F 69% 30.08 in 10.0 mi North 6.9 mph - N/A   Mostly Cloudy
5:35 PM 71.4 °F 61.0 °F 70% 30.09 in 10.0 mi North 4.6 mph - N/A   Overcast
5:55 PM 71.2 °F 60.4 °F 69% 30.08 in 10.0 mi North 5.8 mph - N/A   Overcast
6:15 PM 70.7 °F 59.7 °F 68% 30.09 in 10.0 mi North 5.8 mph - N/A   Overcast
6:35 PM 70.3 °F 59.4 °F 68% 30.09 in 10.0 mi North 5.8 mph - N/A   Overcast
6:55 PM 69.8 °F 58.8 °F 68% 30.10 in 10.0 mi North 5.8 mph - N/A   Overcast
7:15 PM 69.3 °F 58.1 °F 68% 30.09 in 10.0 mi North 6.9 mph - N/A   Overcast
7:35 PM 68.9 °F 57.2 °F 66% 30.09 in 10.0 mi North 8.1 mph - N/A   Overcast
7:55 PM 68.5 °F 55.2 °F 62% 30.10 in 10.0 mi North 9.2 mph - N/A   Overcast
8:15 PM 67.1 °F 55.2 °F 66% 30.11 in 7.0 mi NNW 5.8 mph - N/A   Drizzle
8:35 PM 65.5 °F 55.9 °F 71% 30.11 in 7.0 mi North 5.8 mph - N/A Rain Light Rain
8:55 PM 64.9 °F 56.3 °F 74% 30.11 in 10.0 mi North 5.8 mph - N/A   Drizzle
9:15 PM 64.6 °F 56.5 °F 75% 30.12 in 10.0 mi Calm Calm - N/A   Light Drizzle
9:35 PM 63.9 °F 56.8 °F 78% 30.12 in 5.0 mi North 5.8 mph - N/A Rain Rain
9:55 PM 63.5 °F 57.4 °F 80% 30.13 in 7.0 mi Calm Calm - N/A Rain Light Rain
10:15 PM 63.5 °F 58.3 °F 83% 30.12 in 7.0 mi North 6.9 mph - N/A Rain Rain
10:35 PM 62.2 °F 58.6 °F 88% 30.12 in 5.0 mi Calm Calm - N/A Rain Rain
10:55 PM 63.5 °F 59.4 °F 86% 30.12 in 5.0 mi Calm Calm - N/A Rain Rain
11:15 PM 63.5 °F 59.9 °F 88% 30.12 in 4.0 mi Calm Calm - N/A Rain Heavy Rain
11:35 PM 63.1 °F 59.9 °F 89% 30.11 in 4.0 mi NW 3.5 mph - N/A Rain Heavy Rain
11:55 PM 63.5 °F 59.9 °F 88% 30.11 in 3.0 mi NNW 5.8 mph - N/A Rain Heavy Rain